Location: Kaltenbach
(49.2000°N, 7.7500°E)
Time: 06:17:59
(UTC+00:00)

SL-8 R/B - Pass Details

Date: 24 January 2020
Orbit: 656 x 667 km, 48.4° (Epoch: 23 February)

Event Time Altitude Azimuth Distance (km) Brightness Sun altitude
Rises 17:50:54 0° 239° (WSW) 2,993 8.4 -16.0°
Reaches altitude 10° 17:53:17 10° 234° (SW) 2,081 7.3 -16.4°
Maximum altitude 17:57:58 53° 158° (SSE) 811 4.0 -17.1°
Enters shadow 17:59:55 32° 98° (E) 1,141 4.4 -17.4°
